Weather History for Augusta, ME

Change the Weather History Date:

Tuesday, December 4, 2012

  Actual Average Record
Temperature  
Mean Temperature 38 °F -  
Max Temperature 50 °F 36 °F 59 °F (1998)
Min Temperature 28 °F 22 °F 10 °F (2002)
Degree Days  
Heating Degree Days 27    
Moisture  
Dew Point 37 °F    
Average Humidity 96    
Maximum Humidity 100    
Minimum Humidity 87    
Precipitation  
Precipitation 0.03 in - - ()
Sea Level Pressure  
Sea Level Pressure 30.19 in    
Wind  
Wind Speed 3 mph (South)    
Max Wind Speed 10 mph    
Max Gust Speed 16 mph    
Visibility 4 miles    
Events Fog    
Averages and records for this station are not official NWS values.
T = Trace of Precipitation, MM = Missing Value Source: NWS Daily Summary

Daily Weather History Graph

Daily Weather History Graph

Search for Another Location

Airport:

Trip Planner

Search our weather history database for the weather conditions in past years. The results will help you decide how hot, cold, wet, or windy it might be!

Date:

Astronomy

Dec. 04, 2012 Rise Set
Actual Time 6:58 AM EST 4:00 PM EST
Civil Twilight 6:25 AM EST 4:33 PM EST
Nautical Twilight 5:49 AM EST 5:09 PM EST
Astronomical Twilight 5:14 AM EST 5:44 PM EST
Moon 9:53 PM EST (12/4) 10:43 AM EST (12/4)
Length of Visible Light 10h 07m
Length of Day
9h 01m
Waning Gibbous, 69% of the Moon is Illuminated
Dec 4
Waning Gibbous
Dec 6
Last Quarter
Dec 13
New
Dec 20
First Quarter
Dec 28
Full

Hourly Weather History & Observations

Time (EST) Temp. Windchill Dew Point Humidity Pressure Visibility Wind Dir Wind Speed Gust Speed Precip Events Conditions
12:53 AM 28.4 °F - 28.4 °F 100% 30.31 in 9.0 mi Calm Calm - N/A   Clear
1:53 AM 28.0 °F - 26.1 °F 92% 30.32 in 8.0 mi Calm Calm - N/A   Clear
2:53 AM 28.0 °F - 27.0 °F 96% 30.32 in 5.0 mi Calm Calm - N/A   Clear
3:16 AM 28.4 °F - 26.6 °F 93% 30.30 in 1.8 mi Calm Calm - N/A   Clear
3:50 AM 28.4 °F - 26.6 °F 93% 30.29 in 2.5 mi Calm Calm - N/A   Clear
3:53 AM 28.0 °F - 26.1 °F 92% 30.31 in 4.0 mi Calm Calm - N/A   Clear
4:12 AM 28.4 °F 24.6 °F 26.6 °F 93% 30.30 in 8.0 mi SSW 3.5 mph - N/A   Mostly Cloudy
4:53 AM 28.9 °F - 28.0 °F 96% 30.32 in 7.0 mi Calm Calm - N/A   Overcast
5:53 AM 28.9 °F - 28.0 °F 96% 30.32 in 7.0 mi Calm Calm - N/A   Overcast
6:53 AM 30.0 °F - 28.9 °F 96% 30.31 in 7.0 mi Calm Calm - N/A   Overcast
7:53 AM 32.0 °F - 30.0 °F 92% 30.32 in 9.0 mi Calm Calm - N/A   Overcast
8:53 AM 32.0 °F - 30.9 °F 96% 30.31 in 7.0 mi Calm Calm - N/A   Overcast
9:37 AM 33.8 °F 29.6 °F 30.2 °F 87% 30.30 in 10.0 mi SSW 4.6 mph - N/A   Overcast
9:53 AM 35.1 °F 32.2 °F 33.1 °F 92% 30.31 in 10.0 mi South 3.5 mph - N/A   Overcast
10:53 AM 36.0 °F 33.3 °F 33.1 °F 89% 30.29 in 10.0 mi SSW 3.5 mph - N/A   Overcast
11:53 AM 37.9 °F 35.5 °F 35.1 °F 89% 30.25 in 10.0 mi South 3.5 mph - N/A   Overcast
12:18 PM 37.4 °F - 35.6 °F 93% 30.22 in 9.0 mi Calm Calm - N/A   Overcast
12:53 PM 39.0 °F 35.7 °F 37.0 °F 93% 30.22 in 10.0 mi South 4.6 mph - N/A   Overcast
1:53 PM 39.0 °F 35.7 °F 37.0 °F 93% 30.20 in 7.0 mi South 4.6 mph - N/A   Overcast
2:46 PM 39.2 °F 37.0 °F 39.2 °F 100% 30.17 in 3.0 mi South 3.5 mph - N/A   Overcast
2:53 PM 39.9 °F 36.7 °F 39.0 °F 97% 30.18 in 2.0 mi South 4.6 mph - N/A   Overcast
3:00 PM 39.2 °F 35.9 °F 39.2 °F 100% 30.16 in 1.5 mi South 4.6 mph - N/A   Overcast
3:53 PM 42.1 °F 38.4 °F 42.1 °F 100% 30.17 in 1.2 mi South 5.8 mph - N/A   Overcast
4:03 PM 42.8 °F 40.1 °F 41.0 °F 93% 30.15 in 0.5 mi South 4.6 mph - N/A Fog Fog
4:53 PM 43.0 °F 39.5 °F 43.0 °F 100% 30.15 in 0.2 mi SSW 5.8 mph - N/A Fog Fog
5:07 PM 42.8 °F 39.3 °F 42.8 °F 100% 30.13 in 0.2 mi South 5.8 mph - N/A Fog Fog
5:25 PM 44.6 °F 41.4 °F 42.8 °F 93% 30.12 in 0.5 mi South 5.8 mph - N/A Fog Fog
5:46 PM 44.6 °F 42.2 °F 44.6 °F 100% 30.11 in 1.0 mi SSW 4.6 mph - N/A   Mist
5:53 PM 45.0 °F 41.2 °F 44.1 °F 97% 30.12 in 1.0 mi South 6.9 mph - N/A   Overcast
6:25 PM 44.6 °F 43.1 °F 44.6 °F 100% 30.10 in 0.8 mi South 3.5 mph - 0.01 in   Mist
6:50 PM 46.4 °F 42.4 °F 46.4 °F 100% 30.09 in 1.0 mi South 8.1 mph - 0.01 in   Overcast
6:53 PM 46.0 °F 41.4 °F 46.0 °F 100% 30.10 in 1.2 mi South 9.2 mph - 0.01 in   Overcast
7:53 PM 46.9 °F - 46.9 °F 100% 30.07 in 1.8 mi South 10.4 mph - N/A   Overcast
8:08 PM 46.4 °F 42.4 °F 46.4 °F 100% 30.05 in 2.0 mi South 8.1 mph - N/A   Overcast
8:15 PM 46.4 °F 42.4 °F 46.4 °F 100% 30.05 in 1.8 mi South 8.1 mph - N/A   Overcast
8:53 PM 48.0 °F - 46.9 °F 96% 30.04 in 1.0 mi South 10.4 mph - 0.01 in   Mist
9:53 PM 48.9 °F - 48.0 °F 97% 30.01 in 2.0 mi South 8.1 mph 16.1 mph N/A   Overcast
10:53 PM 48.9 °F - 48.9 °F 100% 29.98 in 2.5 mi Variable 6.9 mph - 0.01 in   Overcast
11:53 PM 50.0 °F - 48.9 °F 96% 29.95 in 2.0 mi South 8.1 mph - N/A   Overcast